Home   Weather   Santa Fe   Past weeks

Flag for USA Past Weather in Santa Fe, New Mexico, USA — Yesterday and Last 2 Weeks

53 °F


Feels Like: 48 °F
Forecast: 43 / 68 °F
Wind: 16 mph from North

Location: Santa Fe County Municipal Airport

Current Time: Oct 26, 2016 at 11:11:13 AM

Latest Report: Oct 26, 2016 at 9:53 AM

Visibility: 10 mi

Pressure: 30.26 "Hg (23.43 "Hg at 2132m altitude)

Humidity: 55%

Dew Point: 37 °F

Location of Santa FeLocation

Past Weather in Santa Fe — Graph


Santa Fe Temperature Yesterday

Maximum temperature yesterday: 71 °F (at 1:53 PM)
Minimum temperature yesterday: 49 °F (at 4:53 AM)
Average temperature yesterday: 58 °F

High & Low Weather Summary for the Past Weeks

High80 °F (Oct 15, 3:53 PM)89% (Oct 13, 5:53 AM)30.40 "Hg (Oct 13, 5:53 AM)
Low29 °F (Oct 20, 5:53 AM)7% (Oct 16, 2:53 PM)29.62 "Hg (Oct 17, 2:53 PM)
Average58 °F35%30.01 "Hg
* Reported Oct 11 9:53 AM — Oct 26 9:53 AM, Santa Fe, Weather by CustomWeather, © 2016

Note: Actual official high and low records may vary slightly from our data, if they occured in-between our weather recording intervals... More about our weather records


Santa Fe Weather History for the Previous 24 Hours

Scroll right to see more
Time TempWeatherWind HumidityBarometerVisibility
9:53 AM
Wed, Oct 26
53 °FSunny.16 mph55%30.26 "Hg10 mi
8:53 AM49 °FSunny.17 mph64%30.24 "Hg10 mi
7:53 AM42 °FSunny.13 mph79%30.22 "Hg10 mi
6:53 AM41 °FClear.10 mph82%30.20 "Hg10 mi
5:53 AM42 °FClear.14 mph82%30.17 "Hg10 mi
4:53 AM45 °FClear.13 mph80%30.15 "Hg10 mi
3:53 AM46 °FClear.12 mph77%30.13 "Hg10 mi
2:53 AM46 °FClear.12 mph77%30.12 "Hg10 mi
1:53 AM49 °FClear.12 mph71%30.10 "Hg10 mi
12:53 AM50 °FClear.10 mph66%30.11 "Hg10 mi
11:53 PM
Tue, Oct 25
50 °FClear.12 mph66%30.11 "Hg10 mi
10:53 PM50 °FClear.8 mph66%30.11 "Hg10 mi
9:53 PM51 °FClear.9 mph61%30.11 "Hg10 mi
8:53 PM55 °FClear.10 mph53%30.06 "Hg10 mi
7:53 PM57 °FClear.10 mph51%30.07 "Hg10 mi
6:53 PM60 °FClear.9 mph46%30.03 "Hg10 mi
5:53 PM66 °FPartly sunny.8 mph36%30.01 "Hg10 mi
4:53 PM67 °FScattered clouds.14 mph35%30.01 "Hg10 mi
3:53 PM68 °FBroken clouds.14 mph35%29.99 "Hg10 mi
2:53 PM69 °FPartly sunny.6 mph33%29.98 "Hg10 mi
1:53 PM71 °FPassing clouds.15 mph30%29.98 "Hg10 mi
12:53 PM66 °FScattered clouds.8 mph37%30.05 "Hg10 mi
11:53 AM63 °FScattered clouds.No wind45%30.09 "Hg10 mi
Weather by CustomWeather, © 2016

See weather overviewHow to use our weather pages